Location: Newark
(43.6583°N, 1.6617°E)
Time: 17:25:56
(UTC+00:00)

Courier 1B - Pass Details

Date: 01 September 2019
Orbit: 962 x 1209 km, 28.3° (Epoch: 15 October)

Event Time Altitude Azimuth Distance (km) Brightness Sun altitude
Rises 12:07:46 0° 205° (SSW) 4,086 11.3 54.5°
Reaches altitude 10° 12:13:06 10° 175° (S) 3,092 10.9 54.4°
Maximum altitude 12:15:29 12° 157° (SSE) 2,949 10.7 54.3°
Drops below altitude 10° 12:17:51 10° 138° (SE) 3,051 10.6 54.2°
Sets 12:22:59 0° 108° (ESE) 3,955 10.7 54.0°
